| time (UTC) | temp F | wind direction | speed MPH | gust MPH | rain 1hr in | rain 24hr in | rain mn in | humidity % | barometer mb |
| 20260901192413 | 96 | 108 | 6.0 | 11.0 | 0.00 | 0.00 | 0.00 | 47 | 1016.0 |
| 20260901191915 | 96 | 155 | 7.0 | 11.0 | 0.00 | 0.00 | 0.00 | 47 | 1016.1 |
| 20260901191414 | 96 | 153 | 4.0 | 11.0 | 0.00 | 0.00 | 0.00 | 47 | 1016.1 |
| 20260901190918 | 96 | 95 | 3.0 | 11.0 | 0.00 | 0.00 | 0.00 | 48 | 1016.3 |
| 20260901190414 | 97 | 198 | 8.0 | 11.0 | 0.00 | 0.00 | 0.00 | 48 | 1016.3 |
| 20260901185916 | 96 | 114 | 4.0 | 11.0 | 0.00 | 0.00 | 0.00 | 47 | 1016.4 |
| 20260901185414 | 96 | 133 | 3.0 | 10.0 | 0.00 | 0.00 | 0.00 | 49 | 1016.4 |
| 20260901184915 | 96 | 61 | 6.0 | 11.0 | 0.00 | 0.00 | 0.00 | 48 | 1016.4 |
| 20260901184413 | 96 | 69 | 5.0 | 11.0 | 0.00 | 0.00 | 0.00 | 48 | 1016.5 |
| 20260901183912 | 95 | 76 | 5.0 | 11.0 | 0.00 | 0.00 | 0.00 | 50 | 1016.6 |
| 20260901183413 | 95 | 90 | 2.0 | 11.0 | 0.00 | 0.00 | 0.00 | 50 | 1016.8 |
| 20260901182912 | 96 | 151 | 10.0 | 10.0 | 0.00 | 0.00 | 0.00 | 49 | 1016.9 |
| 20260901182411 | 95 | 67 | 3.0 | 10.0 | 0.00 | 0.00 | 0.00 | 50 | 1016.9 |
| 20260901181914 | 96 | 43 | 5.0 | 11.0 | 0.00 | 0.00 | 0.00 | 50 | 1016.9 |
| 20260901181413 | 96 | 115 | 2.0 | 11.0 | 0.00 | 0.00 | 0.00 | 49 | 1016.9 |
| 20260901180913 | 95 | 123 | 4.0 | 9.0 | 0.00 | 0.00 | 0.00 | 50 | 1016.9 |
| 20260901180411 | 95 | 194 | 3.0 | 11.0 | 0.00 | 0.00 | 0.00 | 52 | 1017.0 |
| 20260901175912 | 95 | 147 | 2.0 | 11.0 | 0.00 | 0.00 | 0.00 | 51 | 1017.1 |
| 20260901175413 | 95 | 189 | 6.0 | 9.0 | 0.00 | 0.00 | 0.00 | 51 | 1017.2 |
| 20260901174911 | 95 | 230 | 1.0 | 10.0 | 0.00 | 0.00 | 0.00 | 50 | 1017.3 |
| 20260901174412 | 94 | 220 | 2.0 | 10.0 | 0.00 | 0.00 | 0.00 | 51 | 1017.4 |
| 20260901173913 | 95 | 113 | 8.0 | 10.0 | 0.00 | 0.00 | 0.00 | 51 | 1017.5 |
| 20260901173412 | 94 | 121 | 1.0 | 10.0 | 0.00 | 0.00 | 0.00 | 51 | 1017.5 |
| 20260901172914 | 94 | 113 | 6.0 | 9.0 | 0.00 | 0.00 | 0.00 | 51 | 1017.5 |
| 20260901172423 | 94 | 88 | 4.0 | 10.0 | 0.00 | 0.00 | 0.00 | 53 | 1017.7 |
| 20260901171913 | 94 | 94 | 1.0 | 10.0 | 0.00 | 0.00 | 0.00 | 52 | 1017.8 |
| 20260901171413 | 94 | 137 | 7.0 | 10.0 | 0.00 | 0.00 | 0.00 | 51 | 1017.7 |
| 20260901170915 | 94 | 99 | 3.0 | 8.0 | 0.00 | 0.00 | 0.00 | 52 | 1017.9 |
| 20260901170400 | 94 | 167 | 4.0 | 8.0 | 0.00 | 0.00 | 0.00 | 53 | 1017.8 |
| 20260901165906 | 93 | 227 | 1.0 | 10.0 | 0.00 | 0.00 | 0.00 | 54 | 1018.0 |
| 20260901165403 | 93 | 205 | 3.0 | 12.0 | 0.00 | 0.00 | 0.00 | 54 | 1018.0 |
| 20260901164912 | 93 | 203 | 4.0 | 12.0 | 0.00 | 0.00 | 0.00 | 54 | 1018.2 |
| 20260901164402 | 93 | 177 | 5.0 | 12.0 | 0.00 | 0.00 | 0.00 | 54 | 1018.2 |
| 20260901163903 | 92 | 142 | 8.0 | 9.0 | 0.00 | 0.00 | 0.00 | 56 | 1018.3 |
| 20260901163404 | 92 | 199 | 7.0 | 10.0 | 0.00 | 0.00 | 0.00 | 56 | 1018.3 |
| 20260901162905 | 92 | 190 | 3.0 | 10.0 | 0.00 | 0.00 | 0.00 | 55 | 1018.3 |
| 20260901162405 | 92 | 205 | 2.0 | 10.0 | 0.00 | 0.00 | 0.00 | 55 | 1018.2 |
| 20260901161901 | 92 | 220 | 3.0 | 10.0 | 0.00 | 0.00 | 0.00 | 56 | 1018.3 |
| 20260901161405 | 92 | 255 | 3.0 | 10.0 | 0.00 | 0.00 | 0.00 | 57 | 1018.2 |
| 20260901160901 | 91 | 155 | 3.0 | 10.0 | 0.00 | 0.00 | 0.00 | 57 | 1018.3 |
| 20260901160402 | 92 | 130 | 10.0 | 7.0 | 0.00 | 0.00 | 0.00 | 57 | 1018.2 |
| 20260901155903 | 91 | 248 | 1.0 | 8.0 | 0.00 | 0.00 | 0.00 | 57 | 1018.2 |
| 20260901155401 | 91 | 182 | 3.0 | 8.0 | 0.00 | 0.00 | 0.00 | 58 | 1018.3 |
| 20260901154900 | 91 | 205 | 6.0 | 7.0 | 0.00 | 0.00 | 0.00 | 58 | 1018.2 |
| 20260901154400 | 90 | 222 | 3.0 | 8.0 | 0.00 | 0.00 | 0.00 | 58 | 1018.3 |
| 20260901153900 | 90 | 204 | 2.0 | 8.0 | 0.00 | 0.00 | 0.00 | 60 | 1018.3 |
| 20260901153401 | 90 | 225 | 4.0 | 8.0 | 0.00 | 0.00 | 0.00 | 59 | 1018.3 |
| 20260901152902 | 90 | 217 | 4.0 | 8.0 | 0.00 | 0.00 | 0.00 | 60 | 1018.2 |
| 20260901152358 | 89 | 226 | 2.0 | 10.0 | 0.00 | 0.00 | 0.00 | 61 | 1018.2 |
| 20260901151858 | 89 | 226 | 6.0 | 10.0 | 0.00 | 0.00 | 0.00 | 62 | 1018.1 |
| 20260901151359 | 88 | 245 | 7.0 | 7.0 | 0.00 | 0.00 | 0.00 | 63 | 1018.1 |
| 20260901150859 | 88 | 224 | 1.0 | 7.0 | 0.00 | 0.00 | 0.00 | 63 | 1018.2 |
| 20260901150358 | 88 | 210 | 4.0 | 8.0 | 0.00 | 0.00 | 0.00 | 64 | 1018.2 |
| 20260901145858 | 87 | 238 | 4.0 | 8.0 | 0.00 | 0.00 | 0.00 | 65 | 1018.2 |
| 20260901145357 | 87 | 166 | 6.0 | 8.0 | 0.00 | 0.00 | 0.00 | 65 | 1018.3 |
| 20260901144858 | 87 | 190 | 1.0 | 7.0 | 0.00 | 0.00 | 0.00 | 65 | 1018.3 |
| 20260901144357 | 87 | 223 | 3.0 | 7.0 | 0.00 | 0.00 | 0.00 | 66 | 1018.2 |
| 20260901143857 | 86 | 174 | 2.0 | 6.0 | 0.00 | 0.00 | 0.00 | 66 | 1018.3 |
| 20260901143400 | 86 | 208 | 4.0 | 7.0 | 0.00 | 0.00 | 0.00 | 67 | 1018.4 |
| 20260901142858 | 85 | 217 | 4.0 | 7.0 | 0.00 | 0.00 | 0.00 | 68 | 1018.4 |
| 20260901142357 | 85 | 207 | 5.0 | 6.0 | 0.00 | 0.00 | 0.00 | 68 | 1018.4 |
| 20260901141856 | 85 | 219 | 2.0 | 7.0 | 0.00 | 0.00 | 0.00 | 69 | 1018.4 |
| 20260901141356 | 84 | 212 | 3.0 | 7.0 | 0.00 | 0.00 | 0.00 | 69 | 1018.5 |
| 20260901140855 | 84 | 144 | 4.0 | 7.0 | 0.00 | 0.00 | 0.00 | 70 | 1018.4 |
| 20260901140354 | 84 | 151 | 3.0 | 7.0 | 0.00 | 0.00 | 0.00 | 70 | 1018.5 |
| 20260901135855 | 84 | 136 | 4.0 | 7.0 | 0.00 | 0.00 | 0.00 | 70 | 1018.4 |
| 20260901135356 | 83 | 148 | 5.0 | 8.0 | 0.00 | 0.00 | 0.00 | 71 | 1018.4 |
| 20260901134854 | 83 | 160 | 4.0 | 9.0 | 0.00 | 0.00 | 0.00 | 71 | 1018.4 |
| 20260901134355 | 83 | 155 | 4.0 | 9.0 | 0.00 | 0.00 | 0.00 | 72 | 1018.5 |
| 20260901133858 | 83 | 159 | 5.0 | 8.0 | 0.00 | 0.00 | 0.00 | 72 | 1018.3 |
| 20260901133357 | 82 | 170 | 4.0 | 8.0 | 0.00 | 0.00 | 0.00 | 73 | 1018.3 |
| 20260901132856 | 82 | 149 | 4.0 | 5.0 | 0.00 | 0.00 | 0.00 | 73 | 1018.2 |
| 20260901132355 | 81 | 184 | 1.0 | 5.0 | 0.00 | 0.00 | 0.00 | 74 | 1018.2 |
| 20260901131854 | 81 | 198 | 2.0 | 5.0 | 0.00 | 0.00 | 0.00 | 75 | 1018.2 |
| 20260901131357 | 81 | 204 | 3.0 | 5.0 | 0.00 | 0.00 | 0.00 | 75 | 1018.2 |
| 20260901130854 | 80 | 211 | 2.0 | 4.0 | 0.00 | 0.00 | 0.00 | 76 | 1018.2 |
| 20260901130353 | 80 | 206 | 2.0 | 4.0 | 0.00 | 0.00 | 0.00 | 76 | 1018.0 |
| 20260901125854 | 80 | 207 | 1.0 | 4.0 | 0.00 | 0.00 | 0.00 | 77 | 1017.9 |
| 20260901125352 | 80 | 207 | 1.0 | 3.0 | 0.00 | 0.00 | 0.00 | 77 | 1018.0 |
| 20260901124852 | 79 | 209 | 2.0 | 2.0 | 0.00 | 0.00 | 0.00 | 77 | 1017.8 |
| 20260901124352 | 79 | 0 | 0.0 | 1.0 | 0.00 | 0.00 | 0.00 | 77 | 1017.7 |
| 20260901123853 | 79 | 0 | 0.0 | 0.0 | 0.00 | 0.00 | 0.00 | 78 | 1017.8 |
| 20260901123352 | 78 | 0 | 0.0 | 1.0 | 0.00 | 0.00 | 0.00 | 78 | 1017.7 |
| 20260901122847 | 78 | 0 | 0.0 | 1.0 | 0.00 | 0.00 | 0.00 | 78 | 1017.4 |
| 20260901122349 | 78 | 0 | 0.0 | 3.0 | 0.00 | 0.00 | 0.00 | 78 | 1017.6 |
| 20260901121848 | 78 | 0 | 0.0 | 3.0 | 0.00 | 0.00 | 0.00 | 78 | 1017.4 |
| 20260901121349 | 78 | 211 | 2.0 | 3.0 | 0.00 | 0.00 | 0.00 | 78 | 1017.4 |
| 20260901120849 | 78 | 212 | 2.0 | 2.0 | 0.00 | 0.00 | 0.00 | 78 | 1017.4 |
| 20260901120348 | 78 | 213 | 1.0 | 2.0 | 0.00 | 0.00 | 0.00 | 77 | 1017.3 |
| 20260901115848 | 78 | 29 | 1.0 | 3.0 | 0.00 | 0.00 | 0.00 | 77 | 1017.2 |
| 20260901115347 | 78 | 32 | 2.0 | 3.0 | 0.00 | 0.00 | 0.00 | 77 | 1017.3 |
| 20260901114846 | 79 | 29 | 2.0 | 3.0 | 0.00 | 0.00 | 0.00 | 77 | 1017.3 |
| 20260901114346 | 79 | 32 | 1.0 | 3.0 | 0.00 | 0.00 | 0.00 | 76 | 1017.2 |
| 20260901113846 | 79 | 30 | 1.0 | 3.0 | 0.00 | 0.00 | 0.00 | 76 | 1017.1 |
| 20260901113347 | 79 | 30 | 2.0 | 3.0 | 0.00 | 0.00 | 0.00 | 75 | 1017.0 |
| 20260901112848 | 79 | 28 | 1.0 | 2.0 | 0.00 | 0.00 | 0.00 | 75 | 1017.0 |
| 20260901112346 | 79 | 30 | 1.0 | 2.0 | 0.00 | 0.00 | 0.00 | 74 | 1017.1 |
| 20260901111846 | 80 | 28 | 1.0 | 2.0 | 0.00 | 0.00 | 0.00 | 74 | 1017.0 |
| 20260901111244 | 80 | 30 | 1.0 | 1.0 | 0.00 | 0.00 | 0.00 | 74 | 1016.9 |
| 20260901110843 | 80 | 29 | 1.0 | 3.0 | 0.00 | 0.00 | 0.00 | 73 | 1016.7 |
| 20260901110342 | 80 | 208 | 1.0 | 3.0 | 0.00 | 0.00 | 0.00 | 73 | 1016.8 |
| 20260901105842 | 80 | 211 | 1.0 | 3.0 | 0.00 | 0.00 | 0.00 | 73 | 1016.7 |
| 20260901105341 | 80 | 212 | 1.0 | 3.0 | 0.00 | 0.00 | 0.00 | 72 | 1016.8 |
| 20260901104840 | 80 | 212 | 2.0 | 3.0 | 0.00 | 0.00 | 0.00 | 72 | 1016.8 |
| 20260901104340 | 81 | 213 | 1.0 | 2.0 | 0.00 | 0.00 | 0.00 | 71 | 1016.8 |
| 20260901103841 | 81 | 213 | 2.0 | 3.0 | 0.00 | 0.00 | 0.00 | 71 | 1016.8 |
| 20260901103340 | 81 | 213 | 2.0 | 3.0 | 0.00 | 0.00 | 0.00 | 71 | 1016.9 |
| 20260901102839 | 81 | 213 | 3.0 | 3.0 | 0.00 | 0.00 | 0.00 | 70 | 1016.8 |
| 20260901102339 | 81 | 213 | 1.0 | 4.0 | 0.00 | 0.00 | 0.00 | 70 | 1016.8 |
| 20260901101838 | 82 | 213 | 2.0 | 4.0 | 0.00 | 0.00 | 0.00 | 69 | 1016.8 |
| 20260901101337 | 82 | 213 | 3.0 | 4.0 | 0.00 | 0.00 | 0.00 | 69 | 1016.8 |
| 20260901100839 | 82 | 214 | 3.0 | 5.0 | 0.00 | 0.00 | 0.00 | 69 | 1016.8 |
| 20260901100338 | 82 | 215 | 3.0 | 5.0 | 0.00 | 0.00 | 0.00 | 68 | 1016.8 |
| 20260901095837 | 82 | 215 | 2.0 | 5.0 | 0.00 | 0.00 | 0.00 | 68 | 1016.7 |
| 20260901095337 | 82 | 215 | 2.0 | 5.0 | 0.00 | 0.00 | 0.00 | 68 | 1016.8 |
| 20260901094837 | 82 | 216 | 1.0 | 5.0 | 0.00 | 0.00 | 0.00 | 67 | 1016.8 |
| 20260901094336 | 83 | 216 | 1.0 | 5.0 | 0.00 | 0.00 | 0.00 | 67 | 1016.9 |
| 20260901093840 | 83 | 217 | 3.0 | 6.0 | 0.00 | 0.00 | 0.00 | 66 | 1016.9 |
| 20260901093336 | 83 | 215 | 4.0 | 6.0 | 0.00 | 0.00 | 0.00 | 66 | 1016.9 |
| 20260901092837 | 83 | 213 | 3.0 | 9.0 | 0.00 | 0.00 | 0.00 | 66 | 1017.0 |
| 20260901092335 | 83 | 32 | 2.0 | 9.0 | 0.00 | 0.00 | 0.00 | 65 | 1017.1 |
| 20260901091835 | 83 | 33 | 3.0 | 8.0 | 0.00 | 0.00 | 0.00 | 65 | 1017.0 |
| 20260901091335 | 83 | 32 | 4.0 | 9.0 | 0.00 | 0.00 | 0.00 | 65 | 1017.1 |
| 20260901090836 | 84 | 34 | 3.0 | 9.0 | 0.00 | 0.00 | 0.00 | 65 | 1017.1 |
| 20260901090334 | 84 | 31 | 5.0 | 11.0 | 0.00 | 0.00 | 0.00 | 64 | 1017.0 |
| 20260901085833 | 84 | 32 | 4.0 | 11.0 | 0.00 | 0.00 | 0.00 | 65 | 1017.0 |
| 20260901085334 | 84 | 34 | 3.0 | 13.0 | 0.00 | 0.00 | 0.00 | 64 | 1016.9 |
| 20260901084833 | 84 | 32 | 5.0 | 13.0 | 0.00 | 0.00 | 0.00 | 64 | 1016.8 |
| 20260901084334 | 84 | 37 | 4.0 | 10.0 | 0.00 | 0.00 | 0.00 | 64 | 1016.8 |
| 20260901083832 | 84 | 32 | 6.0 | 12.0 | 0.00 | 0.00 | 0.00 | 64 | 1016.9 |
| 20260901083332 | 84 | 33 | 4.0 | 12.0 | 0.00 | 0.00 | 0.00 | 64 | 1016.9 |
| 20260901082831 | 84 | 35 | 4.0 | 11.0 | 0.00 | 0.00 | 0.00 | 64 | 1016.9 |
| 20260901082336 | 84 | 31 | 2.0 | 9.0 | 0.00 | 0.00 | 0.00 | 64 | 1016.9 |
| 20260901081836 | 84 | 32 | 4.0 | 9.0 | 0.00 | 0.00 | 0.00 | 64 | 1016.8 |
| 20260901081332 | 84 | 31 | 3.0 | 8.0 | 0.00 | 0.00 | 0.00 | 63 | 1016.8 |
| 20260901080832 | 84 | 32 | 4.0 | 9.0 | 0.00 | 0.00 | 0.00 | 63 | 1016.8 |
| 20260901080331 | 84 | 34 | 5.0 | 9.0 | 0.00 | 0.00 | 0.00 | 63 | 1016.7 |
| 20260901075830 | 84 | 28 | 5.0 | 9.0 | 0.00 | 0.00 | 0.00 | 63 | 1016.8 |
| 20260901075337 | 83 | 28 | 4.0 | 9.0 | 0.00 | 0.00 | 0.00 | 63 | 1016.7 |
| 20260901074829 | 83 | 24 | 4.0 | 4.0 | 0.00 | 0.00 | 0.00 | 64 | 1016.7 |
| 20260901074332 | 82 | 24 | 2.0 | 7.0 | 0.00 | 0.00 | 0.00 | 65 | 1016.7 |
| 20260901073829 | 82 | 24 | 3.0 | 7.0 | 0.00 | 0.00 | 0.00 | 65 | 1016.6 |
| 20260901073329 | 81 | 22 | 1.0 | 4.0 | 0.00 | 0.00 | 0.00 | 66 | 1016.6 |
| 20260901072827 | 80 | 21 | 4.0 | 4.0 | 0.00 | 0.00 | 0.00 | 67 | 1016.6 |
| 20260901072328 | 80 | 22 | 3.0 | 0.0 | 0.00 | 0.00 | 0.00 | 70 | 1016.7 |
| 20260901071828 | 80 | 0 | 0.0 | 0.0 | 0.00 | 0.00 | 0.00 | 69 | 1016.5 |
| 20260901071329 | 80 | 0 | 0.0 | 0.0 | 0.00 | 0.00 | 0.00 | 68 | 1016.5 |
| 20260901070833 | 80 | 0 | 0.0 | 0.0 | 0.00 | 0.00 | 0.00 | 69 | 1016.5 |
| 20260901070327 | 80 | 0 | 0.0 | 0.0 | 0.00 | 0.00 | 0.00 | 69 | 1016.6 |
| 20260901065827 | 80 | 0 | 0.0 | 0.0 | 0.00 | 0.00 | 0.00 | 69 | 1016.5 |
| 20260901065327 | 80 | 0 | 0.0 | 0.0 | 0.00 | 0.00 | 0.00 | 69 | 1016.5 |
| 20260901064825 | 80 | 0 | 0.0 | 0.0 | 0.00 | 0.00 | 0.00 | 69 | 1016.4 |
| 20260901064326 | 80 | 0 | 0.0 | 0.0 | 0.00 | 0.00 | 0.00 | 69 | 1016.4 |
| 20260901063825 | 81 | 0 | 0.0 | 0.0 | 0.00 | 0.00 | 0.00 | 71 | 1016.4 |
| 20260901063325 | 80 | 0 | 0.0 | 0.0 | 0.00 | 0.00 | 0.00 | 67 | 1016.4 |
| 20260901062824 | 80 | 0 | 0.0 | 0.0 | 0.00 | 0.00 | 0.00 | 67 | 1016.3 |
| 20260901062325 | 80 | 0 | 0.0 | 0.0 | 0.00 | 0.00 | 0.00 | 67 | 1016.4 |
| 20260901061826 | 80 | 0 | 0.0 | 0.0 | 0.00 | 0.00 | 0.00 | 69 | 1016.3 |
| 20260901061323 | 80 | 0 | 0.0 | 0.0 | 0.00 | 0.00 | 0.00 | 68 | 1016.3 |
| 20260901060824 | 80 | 0 | 0.0 | 0.0 | 0.00 | 0.00 | 0.00 | 68 | 1016.3 |
| 20260901060323 | 80 | 0 | 0.0 | 0.0 | 0.00 | 0.00 | 0.00 | 68 | 1016.2 |
| 20260901055822 | 81 | 0 | 0.0 | 0.0 | 0.00 | 0.00 | 0.00 | 67 | 1016.1 |
| 20260901055323 | 81 | 0 | 0.0 | 0.0 | 0.00 | 0.00 | 0.00 | 68 | 1016.0 |
| 20260901054824 | 81 | 0 | 0.0 | 0.0 | 0.00 | 0.00 | 0.00 | 64 | 1016.1 |
| 20260901054323 | 81 | 0 | 0.0 | 0.0 | 0.00 | 0.00 | 0.00 | 67 | 1015.9 |
| 20260901053822 | 81 | 0 | 0.0 | 0.0 | 0.00 | 0.00 | 0.00 | 67 | 1016.0 |
| 20260901053322 | 81 | 0 | 0.0 | 0.0 | 0.00 | 0.00 | 0.00 | 66 | 1015.9 |
| 20260901052823 | 81 | 0 | 0.0 | 0.0 | 0.00 | 0.00 | 0.00 | 66 | 1015.8 |
| 20260901052321 | 81 | 0 | 0.0 | 0.0 | 0.00 | 0.00 | 0.00 | 65 | 1015.8 |
| 20260901051822 | 81 | 0 | 0.0 | 0.0 | 0.00 | 0.00 | 0.00 | 65 | 1015.8 |
| 20260901051322 | 81 | 0 | 0.0 | 0.0 | 0.00 | 0.00 | 0.00 | 65 | 1015.7 |
| 20260901050819 | 81 | 0 | 0.0 | 0.0 | 0.00 | 0.00 | 0.00 | 64 | 1015.6 |
| 20260901050320 | 81 | 0 | 0.0 | 0.0 | 0.00 | 0.00 | 0.00 | 64 | 1015.7 |
| 20260901045817 | 82 | 0 | 0.0 | 0.0 | 0.00 | 0.00 | 0.00 | 64 | 1015.6 |
| 20260901045319 | 82 | 0 | 0.0 | 0.0 | 0.00 | 0.00 | 0.00 | 64 | 1015.7 |
| 20260901044820 | 82 | 0 | 0.0 | 0.0 | 0.00 | 0.00 | 0.00 | 64 | 1015.6 |
| 20260901044318 | 82 | 0 | 0.0 | 0.0 | 0.00 | 0.00 | 0.00 | 63 | 1015.6 |
| 20260901043817 | 82 | 0 | 0.0 | 0.0 | 0.00 | 0.00 | 0.00 | 62 | 1015.6 |
| 20260901043318 | 82 | 0 | 0.0 | 0.0 | 0.00 | 0.00 | 0.00 | 63 | 1015.6 |
| 20260901042816 | 82 | 0 | 0.0 | 0.0 | 0.00 | 0.00 | 0.00 | 63 | 1015.6 |
| 20260901042318 | 82 | 0 | 0.0 | 0.0 | 0.00 | 0.00 | 0.00 | 62 | 1015.6 |
| 20260901041816 | 83 | 0 | 0.0 | 0.0 | 0.00 | 0.00 | 0.00 | 62 | 1015.6 |
| 20260901041316 | 83 | 0 | 0.0 | 0.0 | 0.00 | 0.00 | 0.00 | 61 | 1015.6 |
| 20260901040815 | 83 | 0 | 0.0 | 0.0 | 0.00 | 0.00 | 0.00 | 60 | 1015.6 |
| 20260901040315 | 83 | 0 | 0.0 | 0.0 | 0.00 | 0.00 | 0.00 | 60 | 1015.6 |
| 20260901035815 | 83 | 0 | 0.0 | 0.0 | 0.00 | 0.00 | 0.00 | 60 | 1015.7 |
| 20260901035316 | 84 | 0 | 0.0 | 0.0 | 0.00 | 0.00 | 0.00 | 60 | 1015.7 |
| 20260901034813 | 84 | 0 | 0.0 | 0.0 | 0.00 | 0.00 | 0.00 | 59 | 1015.6 |
| 20260901034314 | 84 | 0 | 0.0 | 0.0 | 0.00 | 0.00 | 0.00 | 59 | 1015.6 |
| 20260901033813 | 84 | 0 | 0.0 | 0.0 | 0.00 | 0.00 | 0.00 | 59 | 1015.7 |
| 20260901033313 | 84 | 0 | 0.0 | 0.0 | 0.00 | 0.00 | 0.00 | 59 | 1015.7 |
| 20260901032812 | 85 | 0 | 0.0 | 0.0 | 0.00 | 0.00 | 0.00 | 58 | 1015.7 |
| 20260901032313 | 85 | 0 | 0.0 | 0.0 | 0.00 | 0.00 | 0.00 | 58 | 1015.6 |
| 20260901031813 | 85 | 0 | 0.0 | 0.0 | 0.00 | 0.00 | 0.00 | 57 | 1015.6 |
| 20260901031312 | 86 | 0 | 0.0 | 0.0 | 0.00 | 0.00 | 0.00 | 56 | 1015.5 |
| 20260901030811 | 86 | 0 | 0.0 | 0.0 | 0.00 | 0.00 | 0.00 | 56 | 1015.7 |
| 20260901030311 | 86 | 0 | 0.0 | 0.0 | 0.00 | 0.00 | 0.00 | 56 | 1015.5 |
| 20260901025811 | 87 | 0 | 0.0 | 0.0 | 0.00 | 0.00 | 0.00 | 54 | 1015.5 |
| 20260901025311 | 87 | 0 | 0.0 | 0.0 | 0.00 | 0.00 | 0.00 | 53 | 1015.4 |
| 20260901024813 | 87 | 0 | 0.0 | 0.0 | 0.00 | 0.00 | 0.00 | 53 | 1015.3 |
| 20260901024313 | 87 | 0 | 0.0 | 0.0 | 0.00 | 0.00 | 0.00 | 52 | 1015.3 |
| 20260901023811 | 88 | 0 | 0.0 | 2.0 | 0.00 | 0.00 | 0.00 | 52 | 1015.3 |
| 20260901023311 | 88 | 0 | 0.0 | 3.0 | 0.00 | 0.00 | 0.00 | 51 | 1015.2 |
| 20260901022811 | 88 | 33 | 1.0 | 3.0 | 0.00 | 0.00 | 0.00 | 50 | 1015.1 |
| 20260901022312 | 89 | 0 | 0.0 | 3.0 | 0.00 | 0.00 | 0.00 | 50 | 1015.1 |
| 20260901021812 | 89 | 30 | 1.0 | 2.0 | 0.00 | 0.00 | 0.00 | 50 | 1015.0 |
| 20260901021313 | 89 | 32 | 1.0 | 2.0 | 0.00 | 0.00 | 0.00 | 49 | 1014.8 |
| 20260901020811 | 90 | 0 | 0.0 | 2.0 | 0.00 | 0.00 | 0.00 | 48 | 1014.8 |
| 20260901020311 | 90 | 36 | 1.0 | 2.0 | 0.00 | 0.00 | 0.00 | 48 | 1014.8 |
| 20260901015810 | 90 | 36 | 1.0 | 3.0 | 0.00 | 0.00 | 0.00 | 48 | 1014.7 |
| 20260901015312 | 91 | 35 | 1.0 | 3.0 | 0.00 | 0.00 | 0.00 | 47 | 1014.7 |
| 20260901014810 | 91 | 32 | 1.0 | 3.0 | 0.00 | 0.00 | 0.00 | 46 | 1014.6 |
| 20260901014313 | 91 | 36 | 2.0 | 3.0 | 0.00 | 0.00 | 0.00 | 46 | 1014.6 |
| 20260901013810 | 92 | 38 | 1.0 | 5.0 | 0.00 | 0.00 | 0.00 | 45 | 1014.5 |
| 20260901013312 | 92 | 42 | 1.0 | 5.0 | 0.00 | 0.00 | 0.00 | 44 | 1014.4 |
| 20260901012813 | 92 | 38 | 2.0 | 3.0 | 0.00 | 0.00 | 0.00 | 44 | 1014.5 |
| 20260901012310 | 93 | 52 | 2.0 | 4.0 | 0.00 | 0.00 | 0.00 | 43 | 1014.4 |
| 20260901011835 | 94 | 41 | 3.0 | 4.0 | 0.00 | 0.00 | 0.00 | 42 | 1014.3 |
| 20260901011335 | 94 | 49 | 1.0 | 4.0 | 0.00 | 0.00 | 0.00 | 41 | 1014.3 |
| 20260901010832 | 94 | 171 | 2.0 | 4.0 | 0.00 | 0.00 | 0.00 | 40 | 1014.2 |
| 20260901010334 | 94 | 180 | 2.0 | 7.0 | 0.00 | 0.00 | 0.00 | 40 | 1014.3 |
| 20260901005834 | 95 | 190 | 2.0 | 7.0 | 0.00 | 0.00 | 0.00 | 40 | 1014.2 |
| 20260901005335 | 95 | 177 | 2.0 | 8.0 | 0.00 | 0.00 | 0.00 | 39 | 1014.3 |
| 20260901004832 | 95 | 157 | 5.0 | 8.0 | 0.00 | 0.00 | 0.00 | 39 | 1014.3 |
| 20260901004333 | 95 | 152 | 2.0 | 10.0 | 0.00 | 0.00 | 0.00 | 39 | 1014.2 |
| 20260901003832 | 96 | 177 | 6.0 | 10.0 | 0.00 | 0.00 | 0.00 | 39 | 1014.3 |
| 20260901003332 | 96 | 219 | 5.0 | 9.0 | 0.00 | 0.00 | 0.00 | 39 | 1014.2 |
| 20260901002831 | 96 | 169 | 4.0 | 9.0 | 0.00 | 0.00 | 0.00 | 39 | 1014.3 |
| 20260901002332 | 96 | 179 | 4.0 | 9.0 | 0.00 | 0.00 | 0.00 | 39 | 1014.2 |
| 20260901001831 | 96 | 142 | 5.0 | 9.0 | 0.00 | 0.00 | 0.00 | 39 | 1014.2 |
| 20260901001331 | 96 | 137 | 5.0 | 10.0 | 0.00 | 0.00 | 0.00 | 39 | 1014.3 |
| 20260901000830 | 97 | 150 | 6.0 | 10.0 | 0.00 | 0.00 | 0.00 | 38 | 1014.3 |
| 20260901000331 | 97 | 147 | 4.0 | 14.0 | 0.00 | 0.00 | 0.00 | 38 | 1014.3 |
| 20260831235830 | 97 | 173 | 7.0 | 14.0 | 0.00 | 0.00 | 0.00 | 38 | 1014.4 |
| 20260831235332 | 97 | 156 | 8.0 | 13.0 | 0.00 | 0.00 | 0.00 | 37 | 1014.2 |
| 20260831234833 | 97 | 154 | 4.0 | 12.0 | 0.00 | 0.00 | 0.00 | 37 | 1014.2 |
| 20260831234329 | 98 | 157 | 7.0 | 16.0 | 0.00 | 0.00 | 0.00 | 38 | 1014.3 |
| 20260831233828 | 98 | 153 | 5.0 | 16.0 | 0.00 | 0.00 | 0.00 | 38 | 1014.4 |
| 20260831233330 | 98 | 58 | 5.0 | 8.0 | 0.00 | 0.00 | 0.00 | 38 | 1014.3 |
| 20260831232828 | 98 | 144 | 3.0 | 11.0 | 0.00 | 0.00 | 0.00 | 38 | 1014.4 |
| 20260831232328 | 98 | 161 | 5.0 | 11.0 | 0.00 | 0.00 | 0.00 | 37 | 1014.3 |
| 20260831231827 | 98 | 191 | 5.0 | 9.0 | 0.00 | 0.00 | 0.00 | 38 | 1014.3 |
| 20260831231328 | 98 | 133 | 5.0 | 9.0 | 0.00 | 0.00 | 0.00 | 37 | 1014.2 |
| 20260831230830 | 98 | 196 | 6.0 | 15.0 | 0.00 | 0.00 | 0.00 | 37 | 1014.2 |
| 20260831230325 | 98 | 161 | 4.0 | 15.0 | 0.00 | 0.00 | 0.00 | 36 | 1014.2 |
| 20260831225825 | 99 | 190 | 8.0 | 15.0 | 0.00 | 0.00 | 0.00 | 36 | 1014.2 |
| 20260831225326 | 99 | 155 | 6.0 | 12.0 | 0.00 | 0.00 | 0.00 | 37 | 1014.3 |
| 20260831224827 | 99 | 229 | 6.0 | 12.0 | 0.00 | 0.00 | 0.00 | 37 | 1014.3 |
| 20260831224325 | 99 | 216 | 4.0 | 11.0 | 0.00 | 0.00 | 0.00 | 37 | 1014.3 |
| 20260831223826 | 98 | 197 | 5.0 | 14.0 | 0.00 | 0.00 | 0.00 | 37 | 1014.4 |
| 20260831223325 | 98 | 243 | 6.0 | 14.0 | 0.00 | 0.00 | 0.00 | 37 | 1014.4 |
| 20260831222825 | 99 | 230 | 9.0 | 14.0 | 0.00 | 0.00 | 0.00 | 37 | 1014.5 |
| 20260831222325 | 99 | 200 | 9.0 | 14.0 | 0.00 | 0.00 | 0.00 | 37 | 1014.6 |
| 20260831221824 | 98 | 141 | 5.0 | 14.0 | 0.00 | 0.00 | 0.00 | 37 | 1014.6 |
| 20260831221323 | 99 | 205 | 7.0 | 13.0 | 0.00 | 0.00 | 0.00 | 37 | 1014.7 |
| 20260831220823 | 99 | 167 | 5.0 | 13.0 | 0.00 | 0.00 | 0.00 | 37 | 1014.6 |
| 20260831220323 | 99 | 192 | 7.0 | 13.0 | 0.00 | 0.00 | 0.00 | 37 | 1014.7 |
| 20260831215823 | 99 | 232 | 1.0 | 13.0 | 0.00 | 0.00 | 0.00 | 37 | 1014.8 |
| 20260831215324 | 99 | 161 | 11.0 | 12.0 | 0.00 | 0.00 | 0.00 | 37 | 1014.8 |
| 20260831214825 | 98 | 244 | 5.0 | 12.0 | 0.00 | 0.00 | 0.00 | 37 | 1014.8 |
| 20260831214323 | 98 | 182 | 4.0 | 11.0 | 0.00 | 0.00 | 0.00 | 38 | 1014.9 |
| 20260831213823 | 98 | 222 | 7.0 | 10.0 | 0.00 | 0.00 | 0.00 | 38 | 1015.0 |
| 20260831213323 | 98 | 212 | 8.0 | 9.0 | 0.00 | 0.00 | 0.00 | 38 | 1015.0 |
| 20260831212824 | 98 | 178 | 7.0 | 15.0 | 0.00 | 0.00 | 0.00 | 38 | 1015.0 |
| 20260831212323 | 98 | 186 | 5.0 | 15.0 | 0.00 | 0.00 | 0.00 | 39 | 1015.0 |
| 20260831211820 | 97 | 148 | 6.0 | 15.0 | 0.00 | 0.00 | 0.00 | 38 | 1015.1 |
| 20260831211320 | 97 | 115 | 8.0 | 15.0 | 0.00 | 0.00 | 0.00 | 38 | 1015.2 |
| 20260831210821 | 97 | 202 | 8.0 | 15.0 | 0.00 | 0.00 | 0.00 | 39 | 1015.2 |
| 20260831210319 | 98 | 206 | 6.0 | 14.0 | 0.00 | 0.00 | 0.00 | 39 | 1015.2 |
| 20260831205821 | 98 | 178 | 5.0 | 14.0 | 0.00 | 0.00 | 0.00 | 39 | 1015.3 |
| 20260831205319 | 98 | 215 | 8.0 | 14.0 | 0.00 | 0.00 | 0.00 | 39 | 1015.5 |
| 20260831204819 | 98 | 178 | 5.0 | 16.0 | 0.00 | 0.00 | 0.00 | 40 | 1015.5 |
| 20260831204319 | 98 | 148 | 6.0 | 19.0 | 0.00 | 0.00 | 0.00 | 39 | 1015.7 |
| 20260831203820 | 98 | 159 | 5.0 | 19.0 | 0.00 | 0.00 | 0.00 | 40 | 1015.7 |
| 20260831203323 | 98 | 199 | 7.0 | 12.0 | 0.00 | 0.00 | 0.00 | 41 | 1015.7 |
| 20260831202820 | 97 | 152 | 3.0 | 14.0 | 0.00 | 0.00 | 0.00 | 39 | 1015.8 |
| 20260831202318 | 97 | 179 | 3.0 | 17.0 | 0.00 | 0.00 | 0.00 | 40 | 1015.9 |
| 20260831201817 | 97 | 167 | 11.0 | 17.0 | 0.00 | 0.00 | 0.00 | 38 | 1016.0 |
| 20260831201317 | 97 | 184 | 9.0 | 17.0 | 0.00 | 0.00 | 0.00 | 38 | 1016.1 |
| 20260831200817 | 97 | 201 | 8.0 | 15.0 | 0.00 | 0.00 | 0.00 | 40 | 1016.1 |
| 20260831200316 | 98 | 158 | 10.0 | 18.0 | 0.00 | 0.00 | 0.00 | 39 | 1016.2 |
| 20260831195815 | 97 | 173 | 8.0 | 18.0 | 0.00 | 0.00 | 0.00 | 40 | 1016.2 |
| 20260831195316 | 97 | 152 | 7.0 | 13.0 | 0.00 | 0.00 | 0.00 | 40 | 1016.1 |
| 20260831194815 | 97 | 182 | 4.0 | 13.0 | 0.00 | 0.00 | 0.00 | 39 | 1016.2 |
| 20260831194314 | 97 | 128 | 5.0 | 16.0 | 0.00 | 0.00 | 0.00 | 40 | 1016.3 |
| 20260831193815 | 96 | 208 | 8.0 | 16.0 | 0.00 | 0.00 | 0.00 | 41 | 1016.5 |
| 20260831193314 | 96 | 129 | 11.0 | 16.0 | 0.00 | 0.00 | 0.00 | 41 | 1016.5 |
| 20260831192818 | 97 | 162 | 7.0 | 16.0 | 0.00 | 0.00 | 0.00 | 42 | 1016.6 |